LU8AQL-WX Weather Reports


time (UTC)temp
F
wind
direction
speed
knots
gust
knots
rain 1hr
in
rain 24hr
in
rain mn
in
humidity
%
barometer
mb
20260506004423 67 100 8.7 0.0 0.00 0.00 0.00 89 1014.0
20260506003422 67 100 8.7 0.0 0.00 0.00 0.00 88 1014.0
20260506002421 67 100 8.7 0.0 0.00 0.00 0.00 89 1013.0
20260506001420 67 100 8.7 0.0 0.00 0.00 0.00 88 1013.0
20260506000420 68 110 7.8 0.0 0.00 0.00 0.00 87 1013.0
20260505235419 68 110 7.8 0.0 0.00 0.00 0.00 87 1013.0
20260505234418 67 110 7.8 0.0 0.00 0.00 0.00 87 1013.0
20260505233417 68 110 7.8 0.0 0.00 0.00 0.00 87 1013.0
20260505232416 68 110 7.8 0.0 0.00 0.00 0.00 87 1013.0
20260505231415 68 110 7.8 0.0 0.00 0.00 0.00 87 1013.0
20260505230414 69 87 5.2 7.8 0.00 0.00 0.00 88 1013.0
20260505225413 68 87 5.2 7.8 0.00 0.00 0.00 86 1013.0
20260505224412 68 87 5.2 7.8 0.00 0.00 0.00 85 1013.0
20260505223411 68 87 5.2 7.8 0.00 0.00 0.00 85 1013.0
20260505222410 68 80 4.3 6.1 0.00 0.00 0.00 85 1013.0
20260505221409 68 80 4.3 6.1 0.00 0.00 0.00 85 1013.0
20260505220408 68 130 7.0 0.0 0.00 0.00 0.00 85 1013.0
20260505214405 68 130 7.0 0.0 0.00 0.00 0.00 85 1013.0
20260505213403 68 130 7.0 0.0 0.00 0.00 0.00 85 1013.0
20260505212402 69 73 3.5 4.3 0.00 0.00 0.00 85 1013.0
20260505211401 70 73 3.5 4.3 0.00 0.00 0.00 84 1013.0
20260505210400 70 110 7.0 0.0 0.00 0.00 0.00 82 1013.0
20260505205359 70 110 7.0 0.0 0.00 0.00 0.00 81 1013.0
20260505204357 70 110 7.0 0.0 0.00 0.00 0.00 81 1013.0
20260505203355 70 110 7.0 0.0 0.00 0.00 0.00 81 1013.0
20260505202354 71 110 7.0 0.0 0.00 0.00 0.00 80 1012.0
20260505201346 71 110 7.0 0.0 0.00 0.00 0.00 80 1012.0
20260505200345 71 120 4.3 0.0 0.00 0.00 0.00 80 1012.0
20260505195344 71 120 4.3 0.0 0.00 0.00 0.00 80 1013.0
20260505194343 71 120 4.3 0.0 0.00 0.00 0.00 80 1013.0
20260505193342 71 120 4.3 0.0 0.00 0.00 0.00 80 1013.0
20260505192342 71 120 4.3 0.0 0.00 0.00 0.00 80 1012.0
20260505191341 71 120 4.3 0.0 0.00 0.00 0.00 80 1012.0
20260505190340 71 0 1.7 0.0 0.00 0.00 0.00 80 1013.0
20260505185339 71 0 1.7 0.0 0.00 0.00 0.00 79 1013.0
20260505184338 71 0 1.7 0.0 0.00 0.00 0.00 79 1013.0
20260505183337 71 0 1.7 0.0 0.00 0.00 0.00 79 1012.0
20260505182336 71 0 1.7 0.0 0.00 0.00 0.00 79 1012.0
20260505181335 71 0 1.7 0.0 0.00 0.00 0.00 79 1012.0
20260505180335 72 26 4.3 3.5 0.00 0.00 0.00 77 1012.0
20260505175334 72 26 4.3 3.5 0.00 0.00 0.00 77 1012.0
20260505174333 72 48 6.1 5.2 0.00 0.00 0.00 77 1012.0
20260505173332 72 48 6.1 5.2 0.00 0.00 0.00 77 1012.0
20260505172331 72 45 5.2 4.3 0.00 0.00 0.00 76 1013.0
20260505171330 72 45 5.2 4.3 0.00 0.00 0.00 76 1013.0
20260505170329 72 45 5.2 4.3 0.00 0.00 0.00 76 1013.0
20260505165328 72 45 5.2 4.3 0.00 0.00 0.00 76 1013.0
20260505164328 72 45 5.2 4.3 0.00 0.00 0.00 76 1013.0
20260505163326 72 45 5.2 4.3 0.00 0.00 0.00 76 1013.0
20260505162326 71 31 4.3 3.5 0.00 0.00 0.00 76 1014.0
20260505161325 71 31 4.3 3.5 0.00 0.00 0.00 77 1014.0
20260505160324 70 120 4.3 0.0 0.00 0.00 0.00 79 1014.0
20260505153322 68 120 4.3 0.0 0.00 0.00 0.00 80 1014.0
20260505152320 68 120 4.3 0.0 0.00 0.00 0.00 81 1014.0
20260505151320 67 120 4.3 0.0 0.00 0.00 0.00 81 1014.0
20260505150319 66 340 2.6 0.0 0.00 0.00 0.00 81 1014.0
20260505140313 65 0 1.7 0.0 0.00 0.00 0.00 82 1014.0
20260505130306 63 40 2.6 0.0 0.00 0.00 0.00 86 1014.0
20260505124304 63 40 2.6 0.0 0.00 0.00 0.00 85 1014.0
20260505123303 63 40 2.6 0.0 0.00 0.00 0.00 86 1014.0
20260505122305 62 40 2.6 0.0 0.00 0.00 0.00 86 1014.0
20260505121301 62 40 2.6 0.0 0.00 0.00 0.00 85 1014.0
20260505120300 62 0 0.0 0.0 0.00 0.00 0.00 84 1014.0
20260505115259 62 0 0.0 0.0 0.00 0.00 0.00 85 1014.0
20260505114258 61 293 1.7 2.6 0.00 0.00 0.00 88 1014.0
20260505113257 61 293 1.7 2.6 0.00 0.00 0.00 88 1014.0
20260505112256 60 302 2.6 4.3 0.00 0.00 0.00 88 1013.0
20260505111256 60 302 2.6 4.3 0.00 0.00 0.00 88 1013.0
20260505110255 61 0 0.0 0.0 0.00 0.00 0.00 86 1013.0
20260505101250 61 0 0.0 0.0 0.00 0.00 0.00 84 1013.0
20260505100249 61 0 0.9 0.0 0.00 0.00 0.00 83 1013.0
20260505095248 61 0 0.9 0.0 0.00 0.00 0.00 83 1013.0
20260505094247 61 0 0.9 0.0 0.00 0.00 0.00 83 1013.0
20260505093246 61 0 0.9 0.0 0.00 0.00 0.00 83 1013.0
20260505092245 60 315 5.2 7.0 0.00 0.00 0.00 85 1012.0
20260505091244 60 315 5.2 7.0 0.00 0.00 0.00 84 1012.0
20260505090243 60 0 1.7 0.0 0.00 0.00 0.00 84 1012.0
20260505085242 59 0 1.7 0.0 0.00 0.00 0.00 84 1012.0
20260505084241 59 0 1.7 0.0 0.00 0.00 0.00 84 1012.0
20260505083240 59 0 1.7 0.0 0.00 0.00 0.00 84 1012.0
20260505082240 59 0 1.7 0.0 0.00 0.00 0.00 84 1012.0
20260505081239 59 0 1.7 0.0 0.00 0.00 0.00 84 1012.0
20260505080238 59 330 2.6 0.0 0.00 0.00 0.00 83 1012.0
20260505075237 59 330 2.6 0.0 0.00 0.00 0.00 83 1012.0
20260505074236 58 327 6.1 9.6 0.00 0.00 0.00 84 1012.0
20260505073235 58 321 6.1 10.4 0.00 0.00 0.00 84 1012.0
20260505072234 58 321 6.1 10.4 0.00 0.00 0.00 84 1012.0
20260505071233 58 321 6.1 10.4 0.00 0.00 0.00 84 1012.0
20260505070233 58 0 1.7 0.0 0.00 0.00 0.00 83 1012.0
20260505065231 58 0 1.7 0.0 0.00 0.00 0.00 83 1012.0
20260505064230 58 0 1.7 0.0 0.00 0.00 0.00 83 1012.0
20260505063230 58 0 1.7 0.0 0.00 0.00 0.00 83 1012.0
20260505062229 58 0 1.7 0.0 0.00 0.00 0.00 82 1012.0
20260505061227 58 0 1.7 0.0 0.00 0.00 0.00 82 1012.0
20260505060226 58 0 1.7 0.0 0.00 0.00 0.00 82 1013.0
20260505055226 58 0 1.7 0.0 0.00 0.00 0.00 82 1013.0
20260505054224 57 312 6.1 10.4 0.00 0.00 0.00 83 1013.0
20260505053223 57 319 6.1 10.4 0.00 0.00 0.00 83 1012.0
20260505052223 56 319 6.1 10.4 0.00 0.00 0.00 85 1012.0
20260505051222 57 319 6.1 10.4 0.00 0.00 0.00 83 1012.0
20260505050221 57 0 0.9 0.0 0.00 0.00 0.00 84 1012.0
20260505041216 57 0 0.9 0.0 0.00 0.00 0.00 84 1012.0
20260505040215 57 321 7.0 11.3 0.00 0.00 0.00 81 1012.0
20260505035214 58 321 7.0 11.3 0.00 0.00 0.00 81 1012.0
20260505034213 58 321 7.0 11.3 0.00 0.00 0.00 81 1012.0
20260505033212 57 321 7.0 11.3 0.00 0.00 0.00 81 1012.0
20260505032211 58 328 6.1 8.7 0.00 0.00 0.00 80 1012.0
20260505031210 58 328 6.1 8.7 0.00 0.00 0.00 79 1012.0
20260505030209 58 328 6.1 8.7 0.00 0.00 0.00 79 1012.0
20260505025208 58 328 6.1 8.7 0.00 0.00 0.00 79 1012.0
20260505024207 58 328 6.1 8.7 0.00 0.00 0.00 79 1012.0
20260505023207 58 328 6.1 8.7 0.00 0.00 0.00 79 1012.0
20260505022206 58 320 6.1 8.7 0.00 0.00 0.00 79 1012.0
20260505021204 59 310 3.5 0.0 0.00 0.00 0.00 78 1012.0
20260505020204 59 320 6.1 8.7 0.00 0.00 0.00 77 1012.0
20260505015200 59 320 6.1 8.7 0.00 0.00 0.00 78 1012.0
20260505014159 59 320 6.1 8.7 0.00 0.00 0.00 79 1012.0
20260505013158 59 335 6.1 7.8 0.00 0.00 0.00 79 1011.0
20260505012158 59 335 6.1 7.8 0.00 0.00 0.00 78 1011.0
20260505011157 60 335 6.1 7.8 0.00 0.00 0.00 78 1011.0
20260505010156 60 335 6.1 7.8 0.00 0.00 0.00 78 1011.0
20260505005155 60 335 6.1 7.8 0.00 0.00 0.00 77 1011.0